Date,TemperatureHighF,TemperatureAvgF,TemperatureLowF,DewpointHighF,DewpointAvgF,DewpointLowF,HumidityHigh,HumidityAvg,HumidityLow,PressureMaxIn,PressureMinIn,WindSpeedMaxMPH,WindSpeedAvgMPH,GustSpeedMaxMPH,PrecipitationSumIn
2013-2-1,19.0,7.3,0.0,15.0,1.7,-5.0,89,77,73,30.45,30.21,14,7,0,0.00
2013-2-2,25.0,18.2,10.0,22.0,14.5,6.0,92,85,74,30.22,30.05,11,4,0,0.00
2013-2-3,24.0,19.6,13.0,18.0,15.4,9.0,95,83,70,30.11,29.99,15,5,0,0.00
2013-2-4,30.0,24.2,15.0,25.0,20.1,12.0,89,84,78,30.02,29.83,7,2,0,0.00
2013-2-5,34.0,25.8,14.0,30.0,22.6,11.0,100,88,83,30.12,29.84,13,4,0,0.00
2013-2-6,43.0,33.0,22.0,34.0,27.6,19.0,89,81,70,30.22,30.06,4,1,0,0.00
2013-2-7,35.0,33.4,31.0,34.0,32.3,28.0,98,96,86,30.09,29.87,10,2,0,0.00
2013-2-8,31.0,25.4,23.0,29.0,22.3,20.0,93,88,85,30.40,30.03,11,4,0,0.00
2013-2-9,34.0,29.2,25.0,30.0,26.0,22.0,94,88,81,30.40,30.05,5,1,0,0.00
2013-2-10,48.0,39.9,33.0,46.0,37.5,30.0,98,92,71,30.06,29.45,15,5,0,0.00
2013-2-11,41.0,32.4,29.0,34.0,26.3,23.0,83,78,73,30.09,29.54,22,16,0,0.00
2013-2-12,33.0,28.2,25.0,27.0,23.9,21.0,92,84,76,30.14,29.93,13,5,0,0.00
2013-2-13,43.0,33.4,24.0,36.0,29.5,22.0,95,86,71,29.93,29.74,10,3,0,0.00
2013-2-14,40.0,36.3,32.0,33.0,31.0,28.0,93,81,65,30.01,29.67,15,7,0,0.00
2013-2-15,32.0,26.7,20.0,30.0,19.2,11.0,93,74,56,30.23,30.01,11,8,0,0.00
2013-2-16,24.0,18.5,14.0,16.0,11.0,7.0,80,72,65,30.24,30.16,12,5,0,0.00
2013-2-17,34.0,23.0,10.0,24.0,14.9,6.0,84,71,58,30.24,29.94,4,1,0,0.00
2013-2-18,51.0,37.7,23.0,46.0,32.3,19.0,96,81,68,29.95,29.44,20,6,0,0.00
2013-2-19,23.0,14.6,10.0,20.0,9.8,4.0,88,81,75,30.29,29.70,22,15,0,0.00
2013-2-20,19.0,12.5,5.0,14.0,7.6,0.0,85,80,77,30.46,30.29,10,5,0,0.00
2013-2-21,30.0,21.8,13.0,26.0,18.6,10.0,95,87,81,30.42,29.94,15,5,0,0.00
2013-2-22,33.0,27.5,24.0,31.0,25.2,21.0,96,91,84,29.97,29.80,14,7,0,0.00
2013-2-23,28.0,23.4,19.0,22.0,18.8,15.0,89,83,76,30.01,29.96,10,7,0,0.00
2013-2-24,39.0,25.5,13.0,26.0,20.0,11.0,93,81,57,30.15,30.01,3,0,0,0.00
2013-2-25,41.0,31.7,23.0,33.0,27.3,21.0,93,84,69,30.16,29.92,7,2,0,0.00
2013-2-26,34.0,32.5,31.0,31.0,29.9,28.0,97,90,78,29.93,29.52,11,5,0,0.00
2013-2-27,32.0,30.6,29.0,31.0,29.2,27.0,97,95,93,29.79,29.57,9,7,0,0.00
2013-2-28,34.0,32.1,29.0,31.0,29.4,25.0,95,90,84,30.09,29.79,8,5,0,0.00